Retour au catalogue

STARLINK-6237

ActifCommunicationsVLEO
NORAD 57055·PAYLOAD·🇺🇸 United States

Lancé Jun 22, 2023 depuis Vandenberg Space Force Base

Loading…

Prochains Passages (prochaines 24 heures)

TLE

FraisSource: CelesTrak SupGP

Époque: Sep 15, 2026, 02:47 UTC

1 57055C 23088H   26258.11645833  .00051130  00000+0  18516-2 0  2587
2 57055  42.9984 120.6888 0002244 234.0573 175.4668 15.27557369    17

Suivez STARLINK-6237 en temps réel avec AllMySat

Download on the App Store